TimeCST,TemperatureF,Dew PointF,Humidity,Sea Level PressureIn,VisibilityMPH,Wind Direction,Wind SpeedMPH,Gust SpeedMPH,PrecipitationIn,Events,Conditions,WindDirDegrees,DateUTC
12:55 AM,29.3,26.2,88,30.39,10.0,North,8.1,-,N/A,,Clear,350,2013-03-02 06:55:00
1:55 AM,29.3,26.6,90,30.40,10.0,Calm,Calm,-,N/A,,Clear,0,2013-03-02 07:55:00
2:55 AM,30.4,27.1,88,30.40,10.0,North,4.6,-,N/A,,Clear,350,2013-03-02 08:55:00
3:55 AM,29.5,26.4,88,30.38,10.0,NW,5.8,-,N/A,,Clear,320,2013-03-02 09:55:00
4:55 AM,29.8,27.1,90,30.39,10.0,NW,6.9,-,N/A,,Clear,310,2013-03-02 10:55:00
5:55 AM,25.5,23.5,92,30.40,10.0,NE,3.5,-,N/A,,Clear,50,2013-03-02 11:55:00
6:55 AM,25.0,24.1,96,30.41,10.0,NNE,6.9,-,N/A,,Clear,30,2013-03-02 12:55:00
7:55 AM,28.8,26.6,92,30.42,10.0,Calm,Calm,-,N/A,,Clear,0,2013-03-02 13:55:00
8:55 AM,32.4,29.8,90,30.45,10.0,SW,4.6,-,N/A,,Clear,230,2013-03-02 14:55:00
9:55 AM,36.7,32.2,84,30.43,10.0,SW,6.9,-,N/A,,Clear,230,2013-03-02 15:55:00
10:55 AM,41.2,32.4,71,30.41,10.0,South,5.8,-,N/A,,Clear,180,2013-03-02 16:55:00
11:55 AM,46.6,33.3,60,30.38,10.0,Variable,5.8,-,N/A,,Clear,0,2013-03-02 17:55:00
12:55 PM,51.3,33.3,50,30.33,10.0,Variable,4.6,-,N/A,,Clear,0,2013-03-02 18:55:00
1:55 PM,55.0,33.3,44,30.28,10.0,SSW,11.5,-,N/A,,Scattered Clouds,210,2013-03-02 19:55:00
2:55 PM,58.6,33.6,39,30.24,10.0,SW,10.4,-,N/A,,Clear,220,2013-03-02 20:55:00
3:55 PM,60.4,34.5,38,30.22,10.0,South,6.9,-,N/A,,Clear,180,2013-03-02 21:55:00
4:55 PM,61.7,35.1,37,30.20,10.0,SSW,4.6,-,N/A,,Clear,200,2013-03-02 22:55:00
5:55 PM,59.9,37.6,44,30.19,10.0,SE,6.9,-,N/A,,Clear,140,2013-03-02 23:55:00
6:55 PM,51.8,38.8,61,30.19,10.0,SE,9.2,-,N/A,,Clear,130,2013-03-03 00:55:00
7:55 PM,47.7,37.0,67,30.20,10.0,ESE,8.1,-,N/A,,Clear,120,2013-03-03 01:55:00
8:55 PM,43.3,36.5,77,30.20,10.0,ESE,6.9,-,N/A,,Clear,120,2013-03-03 02:55:00
9:55 PM,41.7,35.4,78,30.21,10.0,ESE,6.9,-,N/A,,Clear,120,2013-03-03 03:55:00
10:55 PM,39.4,34.3,82,30.21,10.0,SE,5.8,-,N/A,,Clear,130,2013-03-03 04:55:00
11:55 PM,39.4,33.8,80,30.18,10.0,ESE,6.9,-,N/A,,Clear,110,2013-03-03 05:55:00